Weather History for Mammoth, CA

Change the Weather History Date:

Sunday, June 9, 2013

  Actual Average Record
Temperature  
Mean Temperature 72 °F -  
Max Temperature 89 °F 69 °F 89 °F (2013)
Min Temperature 53 °F 56 °F 35 °F (2012)
Cooling Degree Days 7    
Growing Degree Days 22 (Base 50)    
Moisture  
Dew Point 30 °F    
Average Humidity 25    
Maximum Humidity 47    
Minimum Humidity 10    
Precipitation  
Precipitation 0.00 in - - ()
Sea Level Pressure  
Sea Level Pressure 30.17 in    
Wind  
Wind Speed 9 mph (SE)    
Max Wind Speed 23 mph    
Max Gust Speed 33 mph    
Visibility 10 miles    
Events      
Averages and records for this station are not official NWS values.
T = Trace of Precipitation, MM = Missing Value Source: NWS Daily Summary

Daily Weather History Graph

Daily Weather History Graph

Search for Another Location

Airport:

Trip Planner

Search our weather history database for the weather conditions in past years. The results will help you decide how hot, cold, wet, or windy it might be!

Date:

Astronomy

Jun. 09, 2013 Rise Set
Actual Time 5:33 AM PDT 8:16 PM PDT
Civil Twilight 5:02 AM PDT 8:47 PM PDT
Nautical Twilight 4:23 AM PDT 9:25 PM PDT
Astronomical Twilight 3:40 AM PDT 10:09 PM PDT
Moon 6:33 AM PDT (6/9) 9:07 PM PDT (6/9)
Length of Visible Light 15h 44m
Length of Day
14h 42m
New Moon, 1% of the Moon is Illuminated
Jun 9
New Moon
Jun 16
First Quarter
Jun 23
Full
Jun 29
Last Quarter
Jul 8
New

Hourly Weather History & Observations

Time (PDT) Temp. Dew Point Humidity Pressure Visibility Wind Dir Wind Speed Gust Speed Precip Events Conditions
12:15 AM 66.2 °F 35.6 °F 32% 30.24 in 10.0 mi West 12.7 mph - N/A   Clear
12:35 AM 62.6 °F 35.6 °F 37% 30.24 in 10.0 mi NNW 4.6 mph - N/A   Clear
12:55 AM 62.6 °F 33.8 °F 34% 30.23 in 10.0 mi West 8.1 mph - N/A   Clear
1:15 AM 64.4 °F 33.8 °F 32% 30.23 in 10.0 mi West 5.8 mph - N/A   Clear
1:35 AM 59.0 °F 33.8 °F 39% 30.23 in 10.0 mi West 9.2 mph - N/A   Clear
1:55 AM 62.6 °F 33.8 °F 34% 30.23 in 10.0 mi WNW 5.8 mph - N/A   Clear
2:15 AM 60.8 °F 33.8 °F 36% 30.23 in 10.0 mi WNW 9.2 mph - N/A   Clear
2:35 AM 60.8 °F 33.8 °F 36% 30.23 in 10.0 mi West 10.4 mph - N/A   Clear
2:55 AM 59.0 °F 33.8 °F 39% 30.23 in 10.0 mi WNW 8.1 mph - N/A   Clear
3:15 AM 60.8 °F 33.8 °F 36% 30.23 in 10.0 mi West 10.4 mph - N/A   Clear
3:35 AM 59.0 °F 33.8 °F 39% 30.23 in 10.0 mi West 10.4 mph 17.3 mph N/A   Clear
3:55 AM 59.0 °F 33.8 °F 39% 30.22 in 10.0 mi West 5.8 mph 20.7 mph N/A   Clear
4:15 AM 57.2 °F 33.8 °F 41% 30.22 in 10.0 mi WNW 5.8 mph - N/A   Clear
4:35 AM 57.2 °F 33.8 °F 41% 30.22 in 10.0 mi West 9.2 mph - N/A   Clear
4:55 AM 55.4 °F 33.8 °F 44% 30.22 in 10.0 mi Calm Calm - N/A   Clear
5:15 AM 57.2 °F 35.6 °F 44% 30.22 in 10.0 mi West 5.8 mph - N/A   Clear
5:35 AM 55.4 °F 35.6 °F 47% 30.22 in 10.0 mi West 4.6 mph - N/A   Clear
5:55 AM 55.4 °F 35.6 °F 47% 30.22 in 10.0 mi NW 3.5 mph - N/A   Clear
6:15 AM 55.4 °F 35.6 °F 47% 30.23 in 10.0 mi NNW 3.5 mph - N/A   Clear
6:35 AM 59.0 °F 37.4 °F 45% 30.23 in 10.0 mi NNW 3.5 mph - N/A   Clear
6:55 AM 60.8 °F 37.4 °F 42% 30.23 in 10.0 mi NW 3.5 mph - N/A   Clear
7:15 AM 62.6 °F 39.2 °F 42% 30.23 in 10.0 mi WNW 6.9 mph - N/A   Clear
7:35 AM 66.2 °F 41.0 °F 40% 30.22 in 10.0 mi Calm Calm - N/A   Clear
7:55 AM 69.8 °F 41.0 °F 35% 30.22 in 10.0 mi Calm Calm - N/A   Clear
8:15 AM 71.6 °F 41.0 °F 33% 30.22 in 10.0 mi SE 4.6 mph - N/A   Clear
8:35 AM 73.4 °F 39.2 °F 29% 30.22 in 10.0 mi SE 6.9 mph - N/A   Clear
8:55 AM 75.2 °F 39.2 °F 27% 30.22 in 10.0 mi SE 4.6 mph - N/A   Clear
9:15 AM 77.0 °F 39.2 °F 26% 30.22 in 10.0 mi SE 5.8 mph - N/A   Clear
9:35 AM 78.8 °F 39.2 °F 24% 30.21 in 10.0 mi SSE 4.6 mph - N/A   Clear
9:55 AM 80.6 °F 35.6 °F 20% 30.20 in 10.0 mi East 4.6 mph - N/A   Clear
10:15 AM 82.4 °F 33.8 °F 17% 30.20 in 10.0 mi East 4.6 mph - N/A   Clear
10:35 AM 82.4 °F 32.0 °F 16% 30.20 in 10.0 mi ESE 3.5 mph - N/A   Clear
10:55 AM 84.2 °F 30.2 °F 14% 30.19 in 10.0 mi East 8.1 mph - N/A   Clear
11:15 AM 86.0 °F 30.2 °F 13% 30.18 in 10.0 mi SE 6.9 mph - N/A   Clear
11:35 AM 87.8 °F 28.4 °F 12% 30.18 in 10.0 mi ESE 10.4 mph 19.6 mph N/A   Clear
11:55 AM 87.8 °F 28.4 °F 12% 30.18 in 10.0 mi ESE 17.3 mph 26.5 mph N/A   Clear
12:15 PM 86.0 °F 28.4 °F 12% 30.17 in 10.0 mi ESE 17.3 mph 24.2 mph N/A   Clear
12:35 PM 86.0 °F 30.2 °F 13% 30.17 in 10.0 mi ESE 18.4 mph 24.2 mph N/A   Clear
12:55 PM 86.0 °F 28.4 °F 12% 30.16 in 10.0 mi ESE 17.3 mph 24.2 mph N/A   Clear
1:15 PM 86.0 °F 28.4 °F 12% 30.16 in 10.0 mi ESE 19.6 mph 27.6 mph N/A   Clear
1:35 PM 87.8 °F 28.4 °F 12% 30.15 in 10.0 mi East 19.6 mph 28.8 mph N/A   Clear
1:55 PM 89.6 °F 28.4 °F 11% 30.15 in 10.0 mi ESE 17.3 mph 28.8 mph N/A   Clear
2:15 PM 89.6 °F 28.4 °F 11% 30.14 in 10.0 mi SSE 15.0 mph 25.3 mph N/A   Clear
2:35 PM 87.8 °F 26.6 °F 11% 30.13 in 10.0 mi East 23.0 mph 27.6 mph N/A   Clear
2:55 PM 89.6 °F 26.6 °F 10% 30.12 in 10.0 mi East 12.7 mph 28.8 mph N/A   Clear
3:15 PM 86.0 °F 24.8 °F 11% 30.11 in 10.0 mi ESE 16.1 mph 32.2 mph N/A   Clear
3:35 PM 86.0 °F 24.8 °F 11% 30.11 in 10.0 mi ESE 19.6 mph 26.5 mph N/A   Clear
3:55 PM 86.0 °F 24.8 °F 11% 30.10 in 10.0 mi ESE 17.3 mph 24.2 mph N/A   Clear
4:15 PM 86.0 °F 24.8 °F 11% 30.09 in 10.0 mi ESE 18.4 mph 27.6 mph N/A   Clear
4:35 PM 84.2 °F 24.8 °F 11% 30.09 in 10.0 mi ESE 21.9 mph 28.8 mph N/A   Clear
4:55 PM 84.2 °F 24.8 °F 11% 30.09 in 10.0 mi ESE 21.9 mph 32.2 mph N/A   Clear
5:15 PM 86.0 °F 24.8 °F 11% 30.08 in 10.0 mi ESE 18.4 mph 32.2 mph N/A   Clear
5:35 PM 82.4 °F 24.8 °F 12% 30.08 in 10.0 mi ESE 23.0 mph 33.4 mph N/A   Clear
5:55 PM 82.4 °F 24.8 °F 12% 30.08 in 10.0 mi ESE 19.6 mph 33.4 mph N/A   Clear
6:15 PM 78.8 °F 23.0 °F 13% 30.07 in 10.0 mi ESE 16.1 mph 25.3 mph N/A   Clear
6:35 PM 80.6 °F 23.0 °F 12% 30.08 in 10.0 mi SE 21.9 mph 29.9 mph N/A   Clear
6:55 PM 80.6 °F 23.0 °F 12% 30.08 in 10.0 mi SSE 23.0 mph 29.9 mph N/A   Clear
7:15 PM 78.8 °F 23.0 °F 13% 30.08 in 10.0 mi SE 11.5 mph 18.4 mph N/A   Clear
7:35 PM 77.0 °F 23.0 °F 13% 30.09 in 10.0 mi SE 9.2 mph 20.7 mph N/A   Clear
7:55 PM 75.2 °F 21.2 °F 13% 30.09 in 10.0 mi ESE 8.1 mph 21.9 mph N/A   Clear
8:15 PM 71.6 °F 23.0 °F 16% 30.10 in 10.0 mi ESE 6.9 mph - N/A   Clear
8:35 PM 68.0 °F 23.0 °F 18% 30.10 in 10.0 mi ESE 6.9 mph - N/A   Clear
8:55 PM 68.0 °F 21.2 °F 17% 30.10 in 10.0 mi ESE 5.8 mph - N/A   Clear
9:15 PM 68.0 °F 17.6 °F 15% 30.11 in 10.0 mi SE 4.6 mph - N/A   Clear
9:35 PM 66.2 °F 14.0 °F 13% 30.12 in 10.0 mi SE 5.8 mph - N/A   Clear
9:55 PM 66.2 °F 10.4 °F 11% 30.12 in 10.0 mi ESE 6.9 mph - N/A   Clear
10:15 PM 64.4 °F 10.4 °F 12% 30.13 in 10.0 mi Calm Calm - N/A   Clear
10:35 PM 60.8 °F 37.4 °F 42% 30.13 in 10.0 mi Calm Calm - N/A   Clear
10:55 PM 57.2 °F 28.4 °F 33% 30.13 in 10.0 mi Calm Calm - N/A   Clear
11:15 PM 57.2 °F 35.6 °F 44% 30.12 in 10.0 mi WNW 4.6 mph - N/A   Clear
11:55 PM 53.6 °F 33.8 °F 47% 30.11 in 10.0 mi NNW 4.6 mph - N/A   Clear